Terminal Aerodrome Forecast
Issued by NWS Boston, MA

Home | Current Version | Previous Version | Text Only | Print | Product List | Glossary On
Versions: 1 2 3 4 5 6 7 8 9 10 11 12 13 14 15 16 17 18 19 20 21 22 23 24 25 26 27 28 29 30 31 32 33 34 35 36 37 38 39 40 41 42 43 44 45
000
FTUS41 KBOX 061126
TAFPVD
TAF
KPVD 061126Z 0612/0712 02004KT P6SM SCT120 BKN200
     FM061700 11006KT P6SM BKN140
     FM061900 17009KT P6SM SCT150
     FM070200 22006KT P6SM FEW250
     FM070700 00000KT P6SM SKC=

USA.gov is the U.S. government's official web portal to all federal, state and local government web resources and services.